User: anonymous   Login
Location: Unspecified
(0.0000°N, 0.0000°E)
Time: 00:57:10
(UTC+00:00)
Language:

STARLINK-31215 - Orbit

View from above orbital plane
View from above orbital plane
View from above satellite
View from above satellite

Ground track
Ground track

The orbit is defined by the following mean orbital elements,

1 58872U          26145.57683426 +.00000000 +00000-0 +58189-4 0 00007
2 58872  42.9989 174.5033 0001371 272.6833  87.3862 15.27583869    07
Epoch (UTC): 25 May 2026 13:50:38
Eccentricity: 0.0001371
inclination: 42.9989°
perigee height: 482 km
apogee height: 484 km
right ascension of ascending node: 174.5033°
argument of perigee: 272.6833°
revolutions per day: 15.27583869
mean anomaly at epoch: 87.3862°

The dashed part of the orbit path shows where the satellite is in the earth's shadow,  

DLR